Location: Limerick
(52.6800°N, 8.6400°W)
Time: 16:13:27
(UTC+01:00)

Sapphire - Visible Passes

Search period start: 24 May 2015 00:00
Search period end: 03 June 2015 00:00
Orbit: 786 x 796 km, 67.1° (Epoch: 23 May)

Date Brightness Start Highest point End Pass type
(mag) Time Alt. Az. Time Alt. Az. Time Alt. Az.
24 May ? 02:01:04 15° SE 02:03:30 20° ESE 02:07:25 10° ENE visible
24 May ? 03:41:47 15° SW 03:46:20 89° NW 03:51:49 10° NE visible
25 May ? 01:31:08 12° SE 01:33:08 15° ESE 01:36:16 10° ENE visible
25 May ? 03:11:51 19° SSW 03:15:46 74° SE 03:21:14 10° NE visible
26 May ? 01:01:23 10° ESE 01:02:48 11° ESE 01:04:31 10° E visible
26 May ? 02:41:53 22° SSW 02:45:14 58° ESE 02:50:36 10° NE visible
26 May ? 04:23:52 10° WSW 04:28:58 39° NW 04:34:03 10° NNE visible
27 May ? 02:11:53 24° S 02:14:45 45° ESE 02:19:57 10° NE visible
27 May ? 03:53:01 10° WSW 03:58:15 46° NW 04:03:30 10° NNE visible
28 May ? 01:41:50 23° SSE 01:44:18 35° ESE 01:49:14 10° NE visible
28 May ? 03:22:33 12° WSW 03:27:35 56° NW 03:32:58 10° NE visible
29 May ? 01:11:44 21° SSE 01:13:52 28° ESE 01:18:27 10° NE visible
29 May ? 02:52:26 15° SW 02:56:56 68° NW 03:02:24 10° NE visible
30 May ? 00:41:35 18° SE 00:43:28 21° ESE 00:47:34 10° ENE visible
30 May ? 02:22:18 19° SW 02:26:21 84° NW 02:31:50 10° NE visible
30 May ? 04:05:53 10° W 04:10:33 28° NNW 04:15:11 10° NNE visible
31 May ? 00:11:23 14° SE 00:13:06 16° ESE 00:16:29 10° ENE visible
31 May ? 01:52:05 21° SSW 01:55:46 79° SE 02:01:15 10° NE visible
31 May ? 03:34:54 10° W 03:39:46 32° NNW 03:44:37 10° NNE visible
31 May ? 23:41:07 11° ESE 23:42:45 12° ESE 23:44:59 10° E visible
01 Jun ? 01:21:49 22° SSW 01:25:14 62° ESE 01:30:38 10° NE visible
01 Jun ? 03:03:59 10° WSW 03:09:01 37° NW 03:14:04 10° NNE visible
02 Jun ? 00:51:28 22° S 00:54:44 49° ESE 00:59:59 10° NE visible
02 Jun ? 02:33:07 10° WSW 02:38:18 44° NW 02:43:31 10° NNE visible
02 Jun ? 04:19:06 10° WNW 04:23:07 20° NNW 04:27:06 10° NNE visible
